Terug naar catalogus

SL-8 R/B

ActiefPO
NORAD 10142·ROCKET BODY·🇷🇺 Russia

Gelanceerd Jul 13, 1977 vanaf Plesetsk Cosmodrome

Loading…

Volgende Passages (komende 24 uur)

TLE

VersSource: Space-Track

Epoch: Sep 14, 2026, 07:10 UTC

1 10142U 77064B   26257.29906405  .00000097  00000-0  79829-4 0  9994
2 10142  82.9671  30.4022 0040769 318.4490  60.9538 13.78923893472994

Volg SL-8 R/B in realtime met AllMySat

Download on the App Store